Location: Terra Rouge Observatory
(46.0000°N, 62.7500°W)
Time: 10:30:48
(UTC-04:00)

NOSS 3-1 (A) - Visible Passes

Search period start: 05 December 2016 00:00
Search period end: 15 December 2016 00:00
Orbit: 847 x 1365 km, 63.4° (Epoch: 29 November)

Date Brightness Start Highest point End Pass type
(mag) Time Alt. Az. Time Alt. Az. Time Alt. Az.
05 Dec 7.0 18:29:58 10° WNW 18:34:13 16° WSW 18:38:35 10° SW visible
06 Dec 6.3 06:34:14 10° SSE 06:38:32 21° ESE 06:43:08 10° ENE visible
06 Dec 6.5 17:43:57 10° WNW 17:49:54 25° WSW 17:56:12 10° SSW visible
07 Dec 6.8 05:52:11 10° SE 05:54:23 12° ESE 05:56:39 10° E visible
07 Dec 5.9 16:58:36 10° NW 17:05:28 37° WSW 17:12:52 10° S visible
08 Dec 4.7 06:53:47 10° S 06:59:21 46° ESE 07:05:31 10° NE visible
08 Dec 7.4 18:08:41 10° W 18:10:35 11° WSW 18:12:32 10° WSW visible
09 Dec 5.6 06:10:02 10° S 06:14:58 29° ESE 06:20:20 10° NE visible
09 Dec 6.9 17:21:19 10° WNW 17:26:23 19° WSW 17:31:39 10° SSW visible
10 Dec 6.2 05:27:01 10° SE 05:30:44 17° ESE 05:34:40 10° ENE visible
11 Dec 4.1 06:30:09 10° SSW 06:35:55 61° ESE 06:42:24 10° NE visible
12 Dec 4.9 05:46:05 10° S 05:51:27 38° ESE 05:57:22 10° NE visible
12 Dec 7.0 16:59:11 10° WNW 17:02:47 14° WSW 17:06:31 10° SW visible
13 Dec 5.6 05:02:34 10° SSE 05:07:07 24° ESE 05:12:02 10° ENE visible
13 Dec 3.5 06:51:22 10° SW 06:57:17 70° NW 07:04:01 10° NE visible
14 Dec 6.2 04:20:04 10° SE 04:22:57 14° ESE 04:25:57 10° ENE visible
14 Dec 3.6 06:06:40 10° SSW 06:12:33 80° SE 06:19:12 10° NE visible
